DateTimeUTC,F1_A11,F1_S11,BsB_S11,BsG_S11,BsR_S11,BbsB_S11,BbsG_S11,BbsR_S11,BaB_A11,BaG_A11,BaR_A11,Tu_S11,T_S11,Uu_S11,U_S11,P_S11,T1_A11
2021-08-09T00:00:00Z,00000200,20000000,,,,,,,-000.02,-000.21,-000.55,18.6,25.4,06.5,04.3,0669.1,31.0
2021-08-09T00:01:00Z,00000200,20000000,,,,,,,0000.00,0000.25,0000.26,18.6,25.4,06.5,04.3,0669.1,31.0
2021-08-09T00:02:00Z,00000200,20000000,,,,,,,-000.14,-000.38,0000.00,18.6,25.5,06.6,04.3,0669.1,31.0
2021-08-09T00:03:00Z,00000200,60000000,,,,,,,0000.18,0000.23,0000.43,18.6,25.5,06.6,04.3,0669.2,31.0
2021-08-09T00:04:00Z,00000200,40000000,0001.79,0001.15,0000.49,0000.25,0000.23,-000.09,0000.07,-000.04,0000.04,18.7,25.2,06.6,04.4,0670.1,31.0
2021-08-09T00:05:00Z,00000200,00000000,0001.70,0001.53,0000.64,0000.20,0000.20,-000.02,-000.07,0000.49,-000.08,18.8,25.2,06.6,04.5,0670.2,31.0
2021-08-09T00:06:00Z,00000200,00000000,0002.10,0000.69,0000.67,-000.17,0000.30,0000.20,0000.13,0000.20,0000.45,18.8,25.2,06.6,04.5,0670.2,31.0
2021-08-09T00:07:00Z,00000200,00000000,0001.48,0001.00,0000.41,0000.24,0000.18,-000.03,-000.05,-000.17,-000.04,18.8,25.2,06.6,04.5,0670.2,31.0
2021-08-09T00:08:00Z,00000200,00000000,0001.80,0001.46,0000.46,0000.46,0000.13,-000.09,0000.09,-000.26,0000.12,18.8,25.2,06.6,04.5,0670.2,31.0
2021-08-09T00:09:00Z,00000200,00000000,0002.36,0001.00,0000.68,-000.16,0000.13,0000.03,0000.10,0000.31,0000.34,18.8,25.2,06.7,04.5,0670.2,31.0
2021-08-09T00:10:00Z,00000200,00000000,0001.94,0001.18,0000.52,0000.77,0000.14,-000.13,-000.11,-000.01,0000.04,18.8,25.2,06.5,04.4,0670.2,31.0
2021-08-09T00:11:00Z,00000200,00000000,0002.18,0001.02,0000.50,-000.43,0000.46,-000.00,-000.23,-000.23,-000.10,18.8,25.1,06.6,04.5,0670.2,31.0
2021-08-09T00:12:00Z,00000200,00000000,0002.16,0001.27,0000.62,0000.18,0000.41,0000.43,-000.12,0000.11,0000.38,18.8,25.1,06.6,04.5,0670.2,31.0
2021-08-09T00:13:00Z,00000200,00000000,0002.66,0001.57,0000.60,0000.39,0000.12,-000.17,0000.22,-000.05,0000.14,18.7,25.1,06.6,04.5,0670.3,31.0
2021-08-09T00:14:00Z,00000200,00000000,0002.27,0001.28,0000.63,-000.05,0000.12,0000.26,-000.00,0000.57,0000.27,18.8,25.1,06.6,04.4,0670.3,31.0
2021-08-09T00:15:00Z,00000200,00000000,0002.25,0001.58,0000.82,-000.16,0000.14,0000.13,0000.01,-000.19,0000.12,18.8,25.1,06.5,04.4,0670.3,31.0
2021-08-09T00:16:00Z,00000200,00000000,0002.81,0001.68,0000.98,0000.25,0000.40,0000.34,-000.06,-000.10,0000.10,18.8,25.1,06.5,04.4,0670.3,31.0
2021-08-09T00:17:00Z,00000200,00000000,0002.72,0002.17,0001.10,0000.09,0000.04,0000.25,0000.24,0000.13,0000.49,18.8,25.1,06.6,04.5,0670.3,31.0
2021-08-09T00:18:00Z,00000200,00000000,0003.44,0001.96,0000.93,0000.78,0000.62,0000.06,-000.40,0000.34,0000.11,18.8,25.1,06.5,04.4,0670.3,31.0
2021-08-09T00:19:00Z,00000200,00000000,0002.82,0002.02,0001.22,0000.45,0000.39,0000.53,-000.22,-000.30,0000.35,18.8,25.1,06.6,04.5,0670.3,31.0
2021-08-09T00:20:00Z,00000200,00000000,0004.08,0002.31,0001.36,0000.51,0000.31,0000.15,0000.10,-000.10,0000.25,18.8,25.1,06.6,04.5,0670.3,31.0
2021-08-09T00:21:00Z,00000200,00000000,0004.14,0002.40,0001.52,0000.63,0000.49,0000.14,-000.31,0000.17,-000.06,18.8,25.1,06.7,04.5,0670.3,31.0
2021-08-09T00:22:00Z,00000200,00000000,0004.53,0002.64,0001.69,0000.86,0000.32,-000.03,0000.01,0000.15,0000.87,18.7,25.1,06.7,04.6,0670.3,31.0
2021-08-09T00:23:00Z,00000200,00000000,0004.97,0002.85,0001.90,-000.02,0000.37,0000.10,0000.09,0000.00,0000.16,18.8,25.1,06.8,04.6,0670.3,31.0
2021-08-09T00:24:00Z,00000200,00000000,0004.85,0002.75,0001.58,0000.64,0000.53,0000.18,0000.06,-000.08,0000.56,18.8,25.1,06.8,04.6,0670.3,31.0
2021-08-09T00:25:00Z,00000200,00000000,0005.15,0003.39,0001.97,0000.86,0000.69,0000.64,-000.22,-000.10,0000.22,18.9,25.2,06.6,04.5,0670.3,31.0
2021-08-09T00:26:00Z,00000200,00000000,0005.02,0003.51,0001.89,0000.83,0000.56,0000.40,-000.80,-000.26,0000.00,18.9,25.2,06.7,04.6,0670.3,31.0
2021-08-09T00:27:00Z,00000200,00000000,0004.42,0003.11,0001.79,0000.59,0000.37,0000.12,0000.05,0000.23,0000.29,18.9,25.2,06.7,04.5,0670.3,31.0
2021-08-09T00:28:00Z,00000200,00000000,0004.30,0002.96,0001.47,0000.29,0000.39,0000.03,-000.57,-000.49,0000.38,18.9,25.2,06.6,04.5,0670.3,31.0
2021-08-09T00:29:00Z,00000200,00000000,0004.26,0003.18,0001.72,0000.11,0000.33,0000.24,-000.32,-000.37,0000.13,18.9,25.2,06.6,04.5,0670.3,31.0
2021-08-09T00:30:00Z,00000200,00000000,0003.57,0002.95,0001.58,0000.57,0000.13,0000.39,0000.16,0000.37,0000.15,19.0,25.2,06.6,04.5,0670.3,31.0
2021-08-09T00:31:00Z,00000200,00000000,0004.06,0002.78,0001.70,0000.75,0000.19,0000.10,-000.28,0000.19,0000.81,18.9,25.2,06.6,04.5,0670.3,31.0
2021-08-09T00:32:00Z,00000200,00000000,0004.86,0003.10,0001.84,0000.54,0000.33,0000.12,-000.13,-000.67,-000.17,18.9,25.2,06.7,04.6,0670.3,31.0
2021-08-09T00:33:00Z,00000200,00000000,0003.45,0003.02,0001.23,0000.39,0000.09,0000.03,-000.36,0000.14,0000.34,18.9,25.2,06.7,04.6,0670.3,31.0
2021-08-09T00:34:00Z,00000200,00000000,0003.42,0002.39,0001.55,0000.35,0000.27,0000.34,0000.12,0000.10,0000.42,18.9,25.2,06.6,04.5,0670.3,31.0
2021-08-09T00:35:00Z,00000200,00000000,0003.63,0002.80,0001.54,0000.45,0000.10,0000.25,-000.58,-000.70,-000.08,18.9,25.2,06.7,04.5,0670.3,31.0
2021-08-09T00:36:00Z,00000200,00000000,0003.53,0002.62,0001.40,0000.12,0000.18,-000.03,-000.03,0000.16,-000.10,18.9,25.2,06.4,04.4,0670.3,31.0
2021-08-09T00:37:00Z,00000200,00000000,0004.69,0002.34,0001.64,0000.07,0000.25,0000.24,-000.60,-000.25,0000.12,18.9,25.2,06.3,04.3,0670.3,31.0
2021-08-09T00:38:00Z,00000200,00000000,0003.44,0002.71,0001.33,0000.34,0000.58,-000.02,-000.12,-000.06,0000.37,18.9,25.1,06.4,04.4,0670.3,31.0
2021-08-09T00:39:00Z,00000200,00000000,0003.66,0002.50,0001.39,0000.92,0000.46,0000.16,0000.45,0000.43,0000.46,18.9,25.1,06.5,04.4,0670.3,31.0
2021-08-09T00:40:00Z,00000200,00000000,0003.04,0002.19,0001.73,0000.43,0000.11,0000.28,-000.72,-000.17,0000.03,18.9,25.1,06.5,04.4,0670.3,31.0
2021-08-09T00:41:00Z,00000200,00000000,0003.42,0002.28,0001.16,0000.62,0000.14,0000.38,-000.08,-000.29,0000.58,18.9,25.1,06.4,04.4,0670.4,31.0
2021-08-09T00:42:00Z,00000200,00000000,0003.78,0002.50,0001.23,-000.11,0000.57,0000.19,-000.15,-000.18,0000.07,18.8,25.1,06.5,04.4,0670.4,31.0
2021-08-09T00:43:00Z,00000200,00000000,0003.09,0002.39,0001.59,0000.31,0000.50,0000.35,-000.60,-000.55,0000.00,18.8,25.1,06.5,04.4,0670.4,31.0
2021-08-09T00:44:00Z,00000200,00000000,0003.14,0002.61,0001.57,0000.44,0000.62,0000.53,0000.27,0000.56,0000.25,18.8,25.1,06.4,04.4,0670.3,31.0
2021-08-09T00:45:00Z,00000200,00000000,0004.14,0002.58,0001.24,0000.34,0000.52,0000.08,-000.50,-000.36,-000.09,18.8,25.1,06.4,04.4,0670.4,31.0
2021-08-09T00:46:00Z,00000200,00000000,0004.32,0002.70,0001.63,0000.93,0000.28,0000.04,-000.33,-000.15,0000.34,18.8,25.1,06.3,04.3,0670.4,31.0
2021-08-09T00:47:00Z,00000200,00000000,0003.78,0002.38,0001.43,0000.06,0000.30,0000.20,-000.41,-000.34,-000.25,18.8,25.1,06.4,04.4,0670.4,31.0
2021-08-09T00:48:00Z,00000200,00000000,0003.76,0002.76,0001.34,-000.49,0000.46,0000.30,-000.08,-000.03,0000.04,18.8,25.1,06.3,04.3,0670.4,31.0
2021-08-09T00:49:00Z,00000200,00000000,0004.03,0002.65,0001.60,0000.92,0000.43,0000.31,-000.51,-000.26,0000.40,18.8,25.1,06.2,04.3,0670.4,31.0
2021-08-09T00:50:00Z,00000200,00000000,0003.90,0002.72,0001.59,0000.19,0000.04,0000.13,-000.46,-000.29,-000.03,18.8,25.1,06.1,04.2,0670.4,31.0
2021-08-09T00:51:00Z,00000200,00000000,0004.79,0002.73,0001.47,0000.05,0000.02,-000.23,-000.16,-000.38,-000.21,18.8,25.1,06.0,04.1,0670.4,31.0
2021-08-09T00:52:00Z,00000200,00000000,0004.51,0002.90,0001.33,0000.32,0000.32,0000.09,-000.30,0000.13,0000.59,18.8,25.1,06.0,04.1,0670.5,31.0
2021-08-09T00:53:00Z,00000200,00000000,0003.63,0003.15,0001.64,0000.79,0000.34,-000.00,0000.20,-000.27,-000.08,18.8,25.0,06.0,04.1,0670.5,31.0
2021-08-09T00:54:00Z,00000200,00000000,0003.61,0003.06,0001.82,0000.67,0000.52,0000.51,-000.53,-000.13,0000.35,18.8,25.1,06.0,04.1,0670.5,31.0
2021-08-09T00:55:00Z,00000200,00000000,0004.29,0002.96,0001.67,0000.35,0000.36,0000.00,0000.10,0000.31,0000.22,18.7,25.1,06.1,04.1,0670.5,31.0
2021-08-09T00:56:00Z,00000200,00000000,0004.47,0002.88,0002.07,0000.39,0000.34,0000.01,-000.20,-000.05,0000.46,18.8,25.0,06.1,04.2,0670.5,31.0
2021-08-09T00:57:00Z,00000200,40000000,,,,,,,0000.26,0000.15,0000.37,18.8,25.1,06.8,04.6,0670.5,31.0
2021-08-09T00:58:00Z,00000200,60000000,,,,,,,-000.32,-000.30,0000.03,18.5,25.2,06.2,04.1,0669.5,31.0
2021-08-09T00:59:00Z,00000200,20000000,,,,,,,-000.42,0000.17,-000.07,18.5,25.3,06.2,04.1,0669.5,31.0
